Tracking 29892 objects as of 21-Nov-2024
HD Live streaming from Space Station
objects crossing your sky now

IRNSS 1B

Track IRNSS 1B now!
IRNSS 1B is classified as:


NORAD ID: 39635
Int'l Code: 2014-017A
Perigee: 35,716.2 km
Apogee: 35,872.6 km
Inclination: 29.1 °
Period: 1,436.1 minutes
Semi major axis: 42165 km
RCS: Unknown
Launch date: April 4, 2014
Source: India (IND)
Launch site: SRIHARIKOTA (SRI)

IRNSS 1B is an Indian navigation satellite, designed for a 10-year lifetime.
Your satellite tracking list
Your tracking list is empty




NASA's NSSDC Master Catalog

Two Line Element Set (TLE):
1 39635U 14017A   24325.87794270  .00000099  00000-0  00000+0 0  9996
2 39635  29.1159 250.1774 0018542 185.2716 356.0264  1.00269345 39032
Source of the keplerian elements: AFSPC